Location: Dos Palmas
(32.4468°N, 116.8732°W)
Time: 00:44:28
(UTC+00:00)

Meteor 1-24 Rocket - Pass Details

Date: 01 November 2021
Orbit: 790 x 927 km, 81.3° (Epoch: 28 November)

Event Time Altitude Azimuth Distance (km) Brightness Sun altitude
Rises 12:58:10 0° 214° (SW) 3,291 6.5 -14.6°
Reaches altitude 10° 13:00:49 10° 226° (SW) 2,377 5.7 -14.1°
Maximum altitude 13:05:24 29° 285° (WNW) 1,478 4.4 -13.1°
Drops below altitude 10° 13:10:08 10° 344° (NNW) 2,454 5.9 -12.1°
Sets 13:12:56 0° 355° (N) 3,416 6.7 -11.5°
